GFSSGP_850_thetae_000.txt.gz
Theta_e
329 329 331 335 340 340 338 337 337 333 332 330 329 328 328 327 326 329 329 328 326 331 331 329 325 322 319 316 316 316 316 318 317 321 324 323 322 322 319 318 318 319 316 314 321 327 323 318 316
328 330 337 338 344 344 339 337 334 332 330 329 328 328 327 327 325 326 328 328 327 329 331 332 333 331 320 316 315 316 318 317 317 321 320 321 324 325 325 323 324 324 323 320 325 328 326 315 319
331 337 338 340 343 341 338 335 331 330 329 328 328 327 326 327 325 325 329 326 329 329 329 330 329 326 323 317 315 316 317 317 318 318 320 321 323 323 323 324 325 324 325 325 326 327 325 322 319
338 336 336 339 337 335 336 333 331 330 328 328 327 327 327 327 326 326 326 327 327 326 326 326 326 324 322 318 316 317 318 318 318 319 318 319 320 324 323 323 324 323 327 328 326 326 322 322 327
336 334 337 339 337 336 336 333 331 329 328 328 326 326 327 327 324 326 325 326 325 325 325 325 323 322 321 317 316 316 320 322 318 317 316 314 315 317 320 322 322 321 324 327 327 323 321 319 327
333 333 335 336 334 334 334 332 329 328 327 327 326 326 329 328 327 326 325 325 325 325 323 325 327 324 321 318 316 315 315 315 314 314 316 320 320 321 321 321 321 322 326 325 328 325 314 319 322
332 334 335 335 333 333 333 332 330 330 327 327 326 326 327 329 326 325 325 325 325 325 325 324 325 323 321 321 322 323 324 324 322 321 320 320 321 320 319 319 321 321 326 326 327 326 311 311 318
331 332 332 333 334 333 333 332 331 330 328 327 326 326 325 327 326 323 325 324 324 324 323 323 322 322 321 324 326 326 325 324 323 322 321 320 319 318 319 319 322 321 324 326 326 327 313 311 314
331 332 333 333 332 331 331 331 331 330 328 328 327 325 325 327 325 324 324 323 323 323 323 322 322 321 321 324 327 326 326 327 325 324 324 321 319 324 324 326 325 324 324 324 325 320 315 312 313
330 332 332 332 331 329 329 329 329 329 329 329 327 325 324 325 325 324 324 324 324 323 323 323 321 321 319 324 326 326 327 326 323 322 318 320 321 323 323 324 325 325 325 324 325 319 321 318 312
330 331 331 331 331 328 327 328 328 329 329 328 326 326 325 324 324 324 324 324 324 324 324 322 321 322 320 325 327 326 327 326 323 321 321 320 320 320 323 324 324 323 324 324 324 318 322 320 313
331 331 331 330 330 327 326 326 329 328 328 327 326 325 325 325 324 324 324 323 323 324 323 324 327 327 326 327 327 327 327 326 321 324 323 323 323 323 324 324 323 324 324 324 325 323 322 321 323
332 331 330 330 328 327 326 327 329 328 327 327 325 324 324 324 324 324 324 324 324 324 323 326 326 326 326 325 327 326 325 324 324 324 325 323 320 323 323 323 323 324 323 324 324 325 326 321 325
330 331 329 329 328 327 327 328 328 327 327 326 325 324 324 324 324 324 325 324 324 325 323 327 327 327 324 325 326 327 325 326 325 325 326 322 318 322 321 321 321 322 324 324 324 325 325 324 325
329 330 328 329 328 328 328 329 328 327 327 327 326 325 325 325 324 324 326 325 325 325 325 326 326 326 326 329 329 326 328 326 324 324 325 324 319 323 322 321 322 322 322 323 323 324 327 327 326
328 329 329 328 329 328 328 329 329 327 328 328 327 326 326 325 325 325 326 326 327 324 326 327 328 327 328 329 329 329 328 325 326 324 323 321 319 322 322 323 320 322 322 322 324 323 325 326 323
328 329 328 329 329 329 329 329 328 328 328 329 327 327 326 326 325 325 325 326 327 325 326 329 328 326 328 325 328 329 331 327 326 325 324 321 321 321 322 323 320 323 322 322 324 325 327 324 327
329 328 328 329 330 329 330 330 329 328 328 329 329 328 327 326 326 325 325 326 327 325 326 328 327 327 328 327 329 330 330 327 327 326 325 323 322 322 322 323 323 321 323 323 324 327 326 326 328
327 328 329 331 330 330 331 333 331 329 328 329 329 328 326 326 326 326 326 326 326 326 327 330 329 329 326 328 329 329 330 328 328 327 326 325 325 323 323 323 323 321 321 322 326 325 325 327 328
326 328 329 329 329 328 329 330 330 330 330 329 327 327 327 327 326 326 326 327 325 325 327 329 330 329 324 330 330 329 330 327 328 328 328 324 326 324 324 324 323 322 322 322 325 325 327 329 330
328 328 329 329 328 329 329 331 331 330 329 328 327 326 325 328 327 326 327 328 326 326 325 329 329 328 323 327 329 330 330 328 328 328 329 327 324 324 324 323 324 323 323 323 326 326 327 329 329
329 328 328 328 328 329 329 333 332 329 330 329 326 326 326 328 327 326 327 328 327 325 325 328 328 328 330 325 329 329 329 329 328 326 327 327 325 325 324 323 326 324 325 323 326 326 325 329 328
328 328 328 328 329 328 328 330 328 330 330 328 326 325 327 328 328 327 328 328 327 325 326 327 328 328 330 330 326 331 330 329 329 327 327 327 324 326 326 325 323 325 326 325 324 325 325 326 325
327 328 328 327 328 332 329 329 329 329 327 326 326 326 328 329 328 328 328 328 326 324 325 327 329 327 330 331 330 331 330 329 328 327 326 327 327 325 325 325 323 325 327 324 323 324 325 328 326
327 329 330 332 330 332 328 329 331 330 327 326 325 327 329 329 329 328 328 328 325 324 324 327 329 327 327 329 330 331 329 327 326 325 326 326 327 326 326 324 323 322 326 326 324 325 325 325 328
328 330 328 334 331 330 331 332 328 327 326 325 325 327 330 329 328 328 328 327 325 324 322 325 327 327 326 327 330 330 330 328 325 325 325 326 327 326 325 324 324 323 323 324 325 325 325 327 329
328 328 327 328 328 329 329 330 330 329 326 326 326 331 331 329 328 328 328 326 325 325 323 324 326 326 326 327 330 329 330 329 328 327 324 325 327 325 326 325 326 326 326 325 325 325 327 327 325
329 327 327 327 331 335 329 330 329 328 327 329 332 332 332 329 328 328 328 326 326 324 324 325 327 326 325 326 328 328 330 330 329 329 324 323 327 325 327 326 327 326 326 325 326 329 327 323 324
328 328 327 329 328 331 332 330 330 331 332 335 333 333 332 329 327 328 327 327 325 323 325 325 326 324 325 325 327 328 330 331 330 328 326 323 326 326 327 326 326 325 325 326 326 326 325 325 325
328 328 329 330 333 329 329 331 332 332 330 332 333 333 330 328 327 327 327 327 323 323 325 325 326 324 323 324 325 327 330 331 331 327 327 325 325 325 328 327 326 326 324 324 324 323 323 324 324

GFSSGP_850_thetae_003.txt.gz
Theta_e
329 328 328 330 334 335 337 338 335 333 328 328 328 327 326 325 327 333 331 327 327 331 329 329 328 326 326 320 316 315 316 315 314 316 323 326 321 319 323 323 321 320 321 319 314 310 309 309 311
329 335 336 336 339 342 339 336 336 327 328 328 328 328 326 325 329 330 328 327 327 327 327 328 327 327 325 322 319 314 315 316 320 320 317 317 317 319 323 325 324 323 325 324 321 319 320 309 310
327 334 334 336 338 341 339 335 333 328 328 328 328 328 327 326 329 329 328 326 325 326 326 328 329 328 325 324 322 316 315 322 323 322 317 317 318 318 321 322 321 323 326 328 327 322 328 318 311
332 338 338 335 335 335 334 332 330 328 328 328 327 326 327 327 326 328 326 322 326 328 329 330 329 326 322 322 321 318 321 324 322 322 320 319 319 319 320 319 320 321 323 324 329 326 324 322 319
336 337 332 334 335 335 332 333 328 326 326 326 326 326 327 327 326 325 320 323 327 326 326 326 325 322 321 320 317 315 320 320 323 325 322 322 323 315 315 318 320 321 322 326 324 328 325 317 321
335 332 329 330 331 331 330 332 331 327 328 326 325 328 328 326 323 324 322 323 325 325 325 324 321 320 319 317 316 316 316 316 315 315 315 315 315 319 320 321 321 321 321 324 326 327 327 320 317
331 328 330 330 331 330 330 332 329 329 327 326 326 325 328 328 326 325 325 325 325 324 321 320 321 321 320 320 321 322 323 325 324 323 323 322 321 320 321 320 319 319 323 321 323 326 328 320 316
331 328 329 329 329 328 330 331 331 330 328 327 327 325 328 328 326 323 324 323 323 322 322 322 322 321 321 321 322 323 326 325 324 324 322 321 321 320 318 318 319 319 323 320 326 327 328 323 310
332 328 329 329 328 329 329 326 328 328 328 328 327 326 326 327 327 323 324 324 323 323 323 322 322 322 322 321 319 326 326 325 325 324 323 322 320 319 321 323 324 325 323 321 325 326 327 326 311
330 329 329 329 329 328 328 326 326 327 328 327 328 325 325 326 326 322 324 324 323 323 323 323 322 322 320 319 322 327 327 326 325 325 320 318 319 319 321 322 323 325 324 325 325 325 326 314 312
330 329 328 328 329 329 329 325 326 325 326 328 326 325 325 324 323 323 324 324 324 323 323 323 322 321 320 316 324 325 326 325 326 324 321 323 320 320 321 323 324 322 323 324 324 325 322 318 316
329 328 329 328 329 329 326 327 325 325 326 328 327 325 325 324 324 324 324 324 324 323 323 323 321 321 316 321 320 321 324 326 326 323 324 323 323 320 324 323 324 323 324 323 324 324 320 321 319
329 329 329 329 329 329 328 326 325 324 327 327 326 325 324 325 325 324 324 324 323 323 323 323 320 320 319 315 324 325 326 324 324 323 325 326 325 320 322 322 322 323 322 324 324 324 322 322 321
329 328 329 330 330 328 327 326 326 326 328 327 325 324 324 324 324 324 325 324 323 323 323 322 321 316 320 318 326 326 326 326 325 324 324 325 325 319 321 321 320 321 323 323 323 324 324 324 320
326 325 326 328 328 325 327 326 326 327 328 327 326 325 325 324 324 324 324 324 324 323 323 321 321 321 322 322 324 327 328 327 325 325 324 323 325 323 321 322 322 321 322 324 323 324 324 323 322
323 325 327 326 326 327 326 326 326 327 327 327 327 327 326 325 325 324 324 324 324 324 323 322 323 324 325 323 326 328 329 329 327 326 326 325 322 321 320 322 323 320 322 322 323 323 325 325 325
323 324 325 327 327 327 326 327 326 327 327 327 328 328 327 326 325 325 324 325 325 325 322 323 322 326 324 323 328 329 330 329 327 326 325 322 321 321 320 322 323 321 322 321 321 322 324 326 326
323 324 326 327 327 326 326 327 326 328 327 327 327 328 327 326 325 325 325 325 325 325 321 321 322 325 322 324 329 329 327 328 328 326 326 325 323 322 321 322 323 321 323 321 322 323 323 326 324
323 325 327 327 327 327 329 328 327 327 327 326 327 328 327 327 325 325 325 324 325 325 322 321 326 327 326 327 330 330 330 328 327 327 327 325 325 324 324 322 323 321 322 322 322 324 326 325 327
324 324 324 325 327 327 328 328 327 327 327 327 327 327 327 326 325 324 324 325 325 325 322 324 328 329 328 326 329 330 329 328 328 327 328 328 325 326 324 323 323 321 322 323 324 325 327 327 328
325 325 324 325 327 327 327 326 328 328 327 327 327 327 327 326 325 325 325 325 326 326 322 327 328 329 323 326 329 328 328 327 328 327 327 328 324 324 324 324 322 322 322 321 325 325 326 326 328
324 325 325 326 327 327 327 325 327 327 325 325 326 326 326 325 325 325 325 326 327 326 325 326 329 327 328 327 324 327 327 328 328 327 327 325 323 323 323 323 323 323 323 324 325 325 326 327 328
324 325 325 327 327 326 325 324 325 326 326 325 322 327 326 326 326 325 325 326 328 325 324 328 327 326 328 328 330 331 330 328 328 327 326 327 324 324 324 322 323 325 324 325 327 326 327 323 327
325 325 326 326 324 325 326 325 325 326 326 325 323 326 327 327 326 326 326 328 328 325 324 326 327 326 327 331 330 331 329 326 326 325 326 327 326 325 324 323 323 326 326 325 325 324 326 323 327
325 323 325 325 322 324 326 327 326 325 326 323 325 328 328 328 327 326 327 328 327 325 323 324 328 327 326 330 329 330 329 325 324 325 325 327 326 325 324 323 322 325 326 324 324 325 327 325 325
323 323 325 327 327 325 326 326 326 326 324 325 328 328 329 328 327 327 328 328 326 325 322 323 327 326 326 327 329 329 329 325 325 324 326 327 326 325 323 323 322 324 326 323 324 325 327 325 328
322 324 323 324 325 325 326 328 327 324 323 323 329 329 329 328 327 328 328 328 325 325 321 322 326 327 326 326 327 329 330 328 327 324 324 326 324 323 324 322 321 321 320 323 325 325 324 327 330
322 325 325 321 324 325 327 328 329 324 323 324 330 328 329 328 328 328 328 327 325 325 322 323 325 326 325 326 328 329 329 329 329 327 324 325 324 325 324 324 325 325 324 324 324 325 327 328 329
322 325 322 320 320 323 325 327 325 324 326 329 330 329 328 328 327 328 328 326 325 325 324 323 326 325 324 326 327 329 330 331 329 326 324 324 325 325 325 326 325 325 324 324 325 325 323 324 326
324 325 322 323 325 324 326 326 327 328 328 328 331 330 328 327 327 328 327 326 325 324 324 323 326 324 324 325 326 329 330 331 328 326 326 325 326 326 325 325 325 325 325 325 325 324 323 326 327

GFSSGP_850_thetae_006.txt.gz
Theta_e
321 325 327 331 333 331 336 336 332 329 328 327 327 326 324 325 326 325 334 327 334 330 331 329 326 326 325 324 319 316 315 316 315 314 314 323 325 319 318 322 324 322 321 320 319 311 310 308 310
323 328 331 334 336 341 339 334 333 327 327 328 327 324 324 328 331 333 331 327 326 325 326 326 326 327 328 327 323 321 317 314 314 317 322 321 319 316 317 319 324 325 323 323 324 321 312 312 309
323 330 328 334 335 339 339 334 332 329 327 327 327 327 326 328 328 328 329 328 326 325 325 326 328 329 329 327 325 323 320 316 316 324 324 321 316 319 318 317 319 319 325 329 329 327 323 316 319
326 335 335 334 334 333 335 333 331 326 327 326 326 326 327 327 326 328 327 325 325 326 325 328 329 329 326 322 322 321 320 319 321 324 325 324 319 317 319 320 316 315 317 320 326 328 329 324 323
334 337 332 332 334 332 330 331 328 325 326 325 325 326 326 328 328 328 326 325 323 325 326 327 327 325 322 320 317 315 318 317 317 323 324 324 323 321 323 319 316 319 321 321 326 326 328 327 325
334 330 328 329 329 329 327 330 330 328 327 325 327 326 326 326 326 326 323 323 326 324 324 325 324 322 319 319 318 316 315 317 319 318 318 318 318 318 317 317 320 320 320 325 324 326 324 328 324
331 328 329 329 331 328 329 330 329 327 328 325 326 326 328 327 325 322 321 322 323 322 323 324 320 320 321 319 319 319 315 318 323 324 323 322 321 322 322 320 320 321 322 326 326 324 324 325 326
331 326 328 327 328 327 327 327 328 328 328 328 326 327 327 326 325 324 324 323 322 322 322 321 322 322 321 321 321 320 319 325 324 324 324 321 318 319 320 319 319 319 319 321 324 322 323 326 327
330 327 328 328 328 327 328 325 328 326 326 327 327 327 327 327 326 326 326 325 323 322 322 322 322 322 322 321 321 319 322 326 325 325 324 323 320 318 319 319 322 323 323 322 320 323 325 327 327
329 328 331 329 327 326 327 326 327 324 324 325 325 326 325 327 327 325 324 323 323 322 323 322 322 322 322 320 320 320 324 326 326 324 325 321 320 320 319 320 322 324 325 326 324 324 326 326 327
329 330 329 329 329 328 327 327 328 324 323 325 325 326 325 326 326 326 322 322 323 323 323 323 322 321 321 321 320 323 325 326 325 325 325 321 323 322 321 321 322 322 321 322 325 324 324 325 326
328 329 330 330 329 328 327 328 327 326 326 326 325 326 326 326 326 324 323 324 324 323 323 323 322 322 320 315 316 323 324 323 323 325 323 323 323 322 319 324 323 323 323 323 323 324 324 325 320
328 329 329 329 328 328 328 327 326 326 328 328 325 325 325 325 325 323 324 324 324 324 323 323 323 321 317 317 320 324 326 326 326 324 324 323 324 325 320 320 323 323 322 322 323 323 324 324 320
329 329 329 329 329 328 328 328 326 327 328 327 326 325 325 324 324 324 324 324 324 323 323 322 322 320 315 316 321 327 328 327 326 325 325 324 323 325 325 320 321 320 320 321 323 323 324 322 319
322 325 327 327 326 324 326 325 325 327 327 327 325 325 324 324 324 324 324 324 324 323 323 323 322 319 316 316 325 327 329 329 328 327 326 325 324 324 325 322 322 322 320 321 322 323 323 324 322
320 320 321 322 323 324 324 326 325 327 327 326 326 325 325 324 324 324 324 324 324 323 323 323 321 317 316 316 325 327 329 330 329 327 326 325 325 323 321 320 322 322 321 321 322 323 323 324 324
318 321 321 322 323 325 324 326 326 326 325 325 327 327 326 326 324 324 324 324 324 323 323 323 320 315 317 318 327 328 328 327 328 327 327 325 324 322 321 320 322 322 321 321 321 323 323 324 323
320 320 322 323 324 324 324 325 325 325 325 325 326 327 327 327 326 325 324 324 324 324 324 321 317 318 316 321 327 329 330 328 327 327 326 325 324 323 323 321 322 322 321 322 321 321 322 324 323
321 321 322 323 324 325 325 325 326 325 325 324 325 327 327 327 326 324 324 324 324 325 324 320 316 319 319 323 328 329 329 328 327 327 327 327 327 325 323 322 322 322 321 322 321 321 322 324 324
319 322 322 322 323 323 323 324 325 325 324 324 325 326 326 326 326 325 324 325 325 325 323 320 320 320 323 323 328 328 329 328 327 327 327 327 328 325 325 323 322 321 322 322 322 323 323 323 325
319 320 323 323 323 323 323 324 324 326 325 326 326 326 325 326 326 325 325 325 325 325 323 319 323 322 326 324 327 327 327 328 327 328 327 326 325 324 324 323 322 321 321 322 322 324 325 325 327
320 321 323 325 325 324 323 325 322 324 324 323 324 325 326 326 325 325 324 325 325 325 323 323 325 326 324 327 324 326 330 329 327 328 326 326 323 323 323 323 321 322 322 321 324 324 324 325 327
321 321 322 324 325 322 323 322 321 322 324 324 322 324 326 326 325 324 324 325 325 326 324 324 327 327 324 328 330 329 330 326 327 326 326 326 323 323 322 323 323 323 323 324 324 323 325 326 326
321 321 321 322 323 324 324 323 325 323 324 324 322 325 325 324 324 324 325 325 326 325 324 327 327 325 325 330 330 329 329 325 324 325 326 326 325 324 322 323 324 325 325 326 326 325 326 324 327
320 320 322 321 323 326 322 324 324 323 323 323 320 324 324 324 325 325 325 326 327 325 324 326 324 326 325 329 329 328 328 324 324 325 325 326 325 325 323 322 324 325 324 325 325 324 326 323 327
316 316 323 324 324 323 323 324 323 322 323 325 323 324 325 325 325 325 326 327 327 325 323 323 323 326 326 329 328 329 329 326 326 323 325 326 325 324 323 322 324 325 324 324 324 326 326 324 325
316 318 318 321 322 322 322 323 325 323 322 324 325 326 326 326 326 326 326 328 327 324 322 322 325 326 326 327 327 329 329 328 328 325 325 324 324 323 323 321 324 325 324 323 324 325 326 325 326
316 318 320 318 323 324 323 325 324 323 323 326 325 324 326 326 327 327 327 328 326 324 322 321 325 326 325 325 327 329 328 329 327 325 324 323 323 323 322 321 320 321 322 323 324 325 324 328 330
315 317 320 320 319 323 322 322 320 321 320 327 325 326 327 327 327 327 328 328 326 325 322 323 325 325 325 326 328 328 329 331 327 324 324 325 325 324 324 324 324 323 323 324 324 325 328 329 329
316 316 320 322 321 320 320 322 322 321 321 326 325 327 327 327 327 327 328 327 325 325 323 322 325 325 324 325 327 328 329 330 327 326 325 325 325 325 325 325 324 324 324 324 324 326 325 327 328

GFSSGP_850_thetae_009.txt.gz
Theta_e
316 318 322 330 332 330 335 335 330 332 326 327 326 324 323 324 323 323 332 333 334 334 335 328 323 320 320 321 321 319 318 318 319 317 315 315 318 325 319 316 317 323 323 322 319 317 311 309 308
323 324 328 334 334 338 336 334 335 329 326 326 326 325 325 327 330 333 331 330 330 328 330 329 327 324 324 325 324 322 321 320 318 317 316 321 326 320 315 315 316 320 325 325 323 322 319 312 311
325 332 331 333 333 338 337 334 330 331 332 326 324 325 326 327 328 328 328 328 327 325 325 326 327 327 328 328 326 324 323 322 321 318 324 327 326 323 321 321 319 326 327 330 328 329 326 321 316
324 332 331 334 336 334 335 334 333 329 327 325 325 326 326 326 326 326 327 327 326 324 324 325 327 328 328 326 323 322 321 321 319 324 325 325 326 325 324 324 323 321 321 328 329 328 329 329 324
332 336 334 333 334 331 330 331 328 326 324 325 325 326 326 326 326 326 326 326 321 322 322 324 326 327 326 322 320 318 316 314 321 321 322 323 325 324 325 322 323 324 322 326 329 329 327 328 328
333 329 328 329 328 328 326 330 327 327 328 324 325 326 326 326 326 326 327 322 322 321 321 323 325 325 322 320 319 317 317 315 315 318 319 321 320 320 320 321 321 321 325 325 326 326 325 325 326
330 326 329 327 330 328 327 329 327 326 325 326 326 324 326 326 327 326 326 322 322 324 323 323 325 323 319 321 320 320 319 317 318 323 323 323 323 321 321 321 321 321 325 325 326 324 324 324 324
332 325 329 326 327 327 327 327 328 327 325 325 326 326 327 326 327 327 325 324 324 324 323 323 323 320 321 321 321 321 319 318 320 324 324 323 321 320 319 320 320 320 325 330 329 327 323 323 324
330 326 328 327 326 326 326 325 328 327 327 325 325 325 326 327 327 326 326 326 325 323 323 323 321 321 322 322 321 321 319 319 323 325 324 322 322 318 318 319 319 320 322 324 322 323 324 324 324
327 326 326 325 325 325 326 327 328 326 326 324 326 326 326 325 326 325 325 324 324 323 322 322 322 322 322 322 321 320 319 320 323 324 324 324 324 321 321 318 319 322 323 324 326 326 324 324 323
327 328 327 326 327 329 327 327 329 326 326 326 325 326 325 326 326 325 326 325 322 321 322 322 323 322 322 321 321 318 320 323 323 324 324 326 324 322 320 319 321 321 322 322 323 324 323 324 326
327 327 328 327 327 329 327 329 327 327 327 327 327 325 325 326 327 326 326 325 321 322 323 323 323 322 322 322 317 319 325 325 325 324 324 323 322 323 322 319 321 324 323 323 322 322 324 323 324
325 326 327 328 329 329 328 327 326 327 328 328 328 326 325 326 326 326 326 325 321 323 323 323 323 322 322 318 316 322 324 326 325 325 325 324 323 323 324 322 319 321 322 322 322 322 323 323 324
326 326 327 327 328 329 327 327 328 328 328 327 327 325 325 326 326 325 326 325 323 324 324 323 323 322 321 317 317 323 327 327 327 327 326 325 325 324 323 325 322 320 321 320 320 322 323 323 324
319 319 320 323 325 325 327 326 325 325 325 326 326 326 326 326 325 325 325 323 323 324 324 323 323 322 320 317 317 323 325 328 327 329 328 326 325 325 324 324 323 321 322 321 320 322 323 324 324
317 317 320 321 322 324 323 326 324 324 325 325 326 326 326 326 325 324 325 324 324 324 323 323 322 322 318 316 320 324 326 325 326 327 328 327 326 325 323 322 322 320 322 322 320 321 323 323 324
315 318 318 320 320 321 320 323 324 325 325 324 325 326 326 326 325 324 324 324 324 323 323 322 323 321 317 315 321 324 325 328 327 327 326 327 325 324 322 321 320 321 322 322 320 321 323 323 324
315 316 318 320 320 320 321 322 323 324 325 324 324 325 324 325 325 324 324 323 323 323 323 323 323 318 317 317 321 324 325 327 327 327 327 327 326 324 323 323 320 322 322 321 321 321 322 323 324
316 316 317 318 320 322 321 322 323 323 322 323 323 324 325 325 326 325 324 323 323 323 323 323 321 317 316 320 321 324 325 327 327 327 327 327 327 327 325 322 322 322 322 321 322 321 321 322 324
317 318 319 320 321 321 320 321 321 321 321 322 324 324 324 323 325 325 324 323 323 323 324 323 319 319 319 320 320 324 325 326 327 327 327 327 327 327 325 324 323 322 321 322 321 320 321 322 325
317 317 318 320 321 321 321 322 322 322 322 324 325 325 324 325 325 325 323 323 323 324 324 322 320 320 321 320 323 323 325 328 328 327 327 326 326 324 325 324 323 322 321 322 321 322 322 323 324
318 319 319 320 320 323 321 323 321 321 322 321 323 324 326 326 325 325 324 323 324 325 324 321 321 322 322 323 323 326 327 326 326 327 326 326 323 323 323 323 322 321 321 322 322 322 322 324 324
318 319 320 320 320 321 322 322 321 320 322 321 320 322 324 325 325 325 324 324 325 325 324 322 323 324 322 324 326 328 328 326 324 324 325 326 323 323 323 322 321 322 322 321 323 324 324 323 325
317 318 318 318 319 321 322 321 323 321 321 322 322 323 324 324 325 325 324 325 325 325 324 323 326 324 323 325 329 329 328 326 324 324 325 326 325 323 322 322 323 323 324 325 325 324 324 325 325
315 316 318 318 321 323 320 321 323 322 321 321 321 322 324 324 324 325 325 325 325 325 324 326 326 321 325 329 329 328 329 326 324 323 325 326 325 324 322 323 324 324 325 325 325 325 326 325 325
315 317 320 323 322 322 321 324 323 321 321 323 324 322 324 323 324 325 325 325 326 325 324 325 323 324 325 328 328 327 329 326 326 324 325 325 325 325 321 321 324 324 324 324 324 324 326 323 327
314 317 318 318 320 321 321 321 321 322 322 323 322 322 323 324 324 324 325 325 326 325 324 323 321 326 325 327 327 328 328 329 328 325 324 324 324 324 322 321 324 326 323 323 324 325 326 324 326
313 313 314 312 318 321 322 322 323 323 325 324 323 322 323 324 325 325 325 326 327 325 323 322 323 325 326 326 327 328 328 329 325 324 323 323 322 322 321 319 324 325 323 322 324 325 325 325 325
312 314 314 316 317 320 321 322 319 321 322 324 322 323 324 324 325 325 326 327 327 324 323 321 324 326 325 326 327 328 329 329 325 324 324 325 323 323 321 320 319 321 322 323 324 324 324 328 329
315 314 314 316 318 318 320 323 321 318 318 322 322 324 325 325 326 326 326 327 326 324 322 321 324 326 324 325 327 328 328 329 326 326 324 326 324 324 323 324 321 321 323 324 324 326 328 328 329

GFSSGP_850_thetae_015.txt.gz
Theta_e
311 312 319 328 332 334 336 339 333 336 334 325 324 326 328 328 334 329 327 330 329 329 327 327 326 325 321 318 319 320 321 321 319 318 317 315 311 313 318 319 314 311 312 316 321 319 318 317 311
314 320 329 332 337 341 340 338 339 337 334 332 327 324 325 327 325 326 327 329 327 326 325 325 325 325 322 321 322 322 322 322 320 319 319 318 315 318 324 325 319 315 312 312 320 325 325 322 320
320 328 334 338 341 343 340 337 337 334 333 329 326 324 325 328 327 326 328 329 327 326 323 322 325 324 323 322 323 323 322 320 319 319 320 320 319 323 325 323 325 321 319 317 325 328 330 329 327
328 330 332 335 338 340 338 337 336 335 331 324 324 327 325 326 326 326 327 327 327 326 323 324 325 324 323 323 324 323 321 318 316 316 315 318 326 328 327 325 325 324 322 327 327 327 329 331 329
328 333 332 337 336 335 336 336 334 333 330 328 324 326 327 326 326 326 326 326 326 324 322 324 323 324 324 324 324 323 321 318 316 315 314 323 327 325 326 326 326 328 328 326 327 325 327 326 326
330 332 334 331 330 331 331 331 331 329 328 328 325 325 326 325 326 326 326 326 326 322 320 320 322 324 325 325 324 323 321 318 318 317 317 326 321 321 322 323 323 323 324 325 325 329 325 327 327
330 333 329 329 327 328 328 328 329 329 328 328 326 326 326 327 326 326 326 327 326 321 320 319 321 324 325 326 325 322 320 319 319 318 323 321 322 323 323 323 322 321 320 321 326 325 323 324 327
329 331 330 330 328 327 326 327 326 327 329 328 325 328 329 328 328 327 326 327 326 322 321 320 321 323 326 327 326 322 320 320 320 318 318 320 322 323 323 320 318 317 317 318 320 324 325 326 325
330 330 329 328 327 327 326 327 326 326 328 328 326 327 327 327 328 328 326 327 327 323 322 322 321 322 325 326 325 322 321 321 320 318 319 321 322 323 321 319 317 317 317 317 318 321 324 324 324
329 331 329 328 327 327 326 326 327 327 327 327 327 327 327 328 328 328 327 326 327 325 322 322 322 324 324 327 324 321 321 321 318 317 321 323 323 322 322 321 320 319 318 318 324 324 327 325 328
328 330 329 328 327 325 326 327 327 327 328 327 327 327 327 328 328 328 327 326 326 326 323 323 323 324 326 327 322 322 322 321 317 319 324 324 324 323 323 321 321 318 319 321 320 322 323 324 326
327 327 327 327 327 327 327 327 327 328 328 328 327 327 327 329 329 328 327 326 326 327 325 324 324 324 326 326 322 322 321 320 317 322 325 324 324 324 323 322 323 321 319 322 323 323 322 322 323
327 326 327 327 327 327 327 327 328 327 324 326 327 328 328 328 328 328 325 325 326 327 326 325 325 323 324 324 322 322 321 317 320 325 325 326 325 325 324 323 323 324 321 320 321 323 322 322 322
322 324 325 325 326 326 327 326 326 326 324 326 326 326 326 327 327 325 325 326 325 326 326 325 325 324 325 323 323 322 320 317 324 326 327 327 328 326 325 325 324 323 324 321 320 321 320 321 322
322 324 325 325 325 325 322 322 323 323 323 324 324 325 326 325 325 325 326 326 326 325 325 326 325 324 324 323 323 322 317 320 324 326 327 327 328 328 328 326 325 324 324 324 321 321 320 321 322
318 319 319 320 320 320 319 322 323 322 323 324 324 325 324 324 324 325 325 325 325 324 325 325 325 325 324 323 322 321 317 323 325 327 327 327 327 328 328 327 325 324 323 323 321 322 320 321 323
318 320 319 319 319 320 322 322 322 321 322 322 323 323 324 324 323 323 324 324 324 324 324 324 325 324 323 323 322 319 319 323 325 327 327 327 327 327 327 326 324 322 322 321 320 322 321 322 322
319 318 318 319 319 319 320 321 322 321 321 322 323 323 323 323 322 324 324 324 325 325 324 324 324 323 323 322 322 317 320 324 325 326 326 327 327 327 327 326 325 322 321 319 322 322 321 321 322
318 320 321 321 318 318 319 320 321 321 322 322 322 322 322 322 324 324 325 325 325 324 323 323 323 323 323 322 321 317 321 325 324 325 327 328 327 328 327 327 326 324 321 320 322 322 321 321 322
315 318 319 319 317 318 319 320 322 322 322 321 322 323 324 325 324 325 325 324 324 323 323 323 323 323 322 322 319 319 323 324 324 327 326 326 327 327 327 327 327 323 321 322 322 321 321 322 322
315 316 316 317 318 319 320 321 320 321 322 322 321 322 323 323 324 325 325 324 321 321 322 323 322 322 322 320 318 321 324 324 325 324 325 326 326 326 324 325 325 323 323 322 321 321 321 323 322
317 316 316 316 317 319 320 323 322 322 322 322 322 324 325 324 323 323 324 323 322 321 322 322 322 323 320 318 320 323 324 325 325 323 324 325 325 323 324 325 324 323 322 321 321 320 321 322 322
317 317 317 318 319 320 320 322 321 322 322 323 323 324 325 322 321 322 323 323 322 321 322 323 323 321 320 320 322 324 326 326 324 323 324 325 326 323 323 323 322 321 321 321 321 321 320 321 322
317 318 319 320 320 322 320 321 321 322 322 322 325 325 323 323 322 322 323 323 321 323 323 323 322 321 321 321 323 327 327 327 325 323 323 325 325 323 322 321 322 322 322 322 322 322 322 322 323
319 320 320 320 320 322 321 321 322 323 322 322 324 326 323 323 323 323 323 322 323 323 323 323 322 322 321 322 325 327 328 327 326 325 324 325 325 324 322 322 323 324 325 324 324 324 324 324 324
319 320 319 321 322 321 321 320 321 323 322 321 323 324 323 325 324 324 324 324 323 324 323 323 323 323 321 323 327 327 328 328 326 324 323 324 324 323 322 324 324 325 325 324 324 324 324 325 325
320 320 319 321 322 323 324 324 324 324 325 325 324 323 325 326 325 324 324 323 324 324 324 323 324 320 322 327 327 327 328 328 325 323 323 324 324 322 322 324 324 324 324 324 324 324 326 325 324
318 319 319 319 320 320 322 324 326 326 326 327 327 326 325 326 325 324 324 324 324 324 324 324 321 322 324 326 326 327 327 328 325 324 323 322 323 322 320 323 324 325 323 324 325 326 326 324 326
315 319 318 319 318 319 319 320 327 328 327 329 329 326 326 326 326 325 325 324 324 325 324 324 320 323 325 326 327 327 328 329 326 325 325 322 322 321 321 322 324 324 322 324 324 325 324 325 325
316 318 318 317 319 319 320 320 324 326 326 326 327 324 325 326 326 325 325 324 325 325 324 322 322 324 325 326 327 327 327 328 326 325 324 323 322 320 320 321 321 321 323 324 323 325 328 327 328